"startDT [UTC]","vpos","CH4 [ppm]","stdev(CH4) [ppm]","CO2 [ppm]","stdev(CO2) [ppm]","H2O_reported [%]","stdev(H2O_reported)","CavityPressure [torr]","CavityTemp [C]","OutletValve","CH4_dry [ppm]","CO2_dry [ppm]","DasTemp [C]","EtalonTemp [C]","WarmBoxTemp [C]","MPVPosition","T_ECpre [C]","T_EC1 [C]","T_EC2 [C]","p_inlet [hPa]","p_in [hPa]","p_out [hPa]","T_inlet [C]","RH_inlet [%]","dwpt_inlet [C]","T_vent [C]","RH_vent [%]","dwpt_vent [C]","flow_vent [l min-1]","flow_inlet [l min-1]","dwpt_sample [C]","T_room [C]"
2015-04-28 00:00:00,3.0,1.88146,0.01708,399.463,2.341,0.0569,0.0771,139.820,45.000,31233.52340,1.88462,399.914,32.250,45.068,45.000,0.00,0.09,-272.72,-272.78,2,493,-0,19.9,7.2,-16.5,19.8,7.4,-16.4,5.73,1.92,-15.1,24.9
2015-04-28 00:01:00,3.0,1.87637,0.00052,397.160,0.060,0.0124,0.0019,139.994,45.000,31016.15776,1.87659,397.223,32.250,45.068,45.000,0.00,0.09,-272.72,-272.77,2,493,-0,19.9,7.1,-16.8,19.8,7.2,-16.6,5.73,1.86,-15.1,24.8
2015-04-28 00:02:00,3.0,1.87625,0.00041,397.242,0.097,0.0122,0.0018,139.994,45.000,30967.66904,1.87646,397.296,32.250,45.068,45.000,0.00,0.09,-272.72,-272.78,1,494,-0,19.9,7.0,-16.9,19.8,7.1,-16.8,5.73,1.93,-15.1,24.8
2015-04-28 00:03:00,3.0,1.87606,0.00026,397.493,0.048,0.0104,0.0019,139.994,45.000,30927.00200,1.87627,397.540,32.247,45.068,45.000,0.00,0.09,-272.72,-272.78,2,494,-0,19.9,6.9,-17.0,19.8,7.1,-16.9,5.73,2.01,-14.0,24.8
2015-04-28 00:04:00,3.0,1.87642,0.00033,397.585,0.037,0.0096,0.0021,140.001,45.000,30895.61341,1.87658,397.628,32.236,45.069,45.000,0.00,0.09,-272.71,-272.78,2,494,-0,19.9,6.9,-17.0,19.8,7.1,-16.9,5.73,1.95,-14.1,24.8
2015-04-28 00:05:00,3.0,1.87605,0.00041,397.621,0.036,0.0064,0.0016,139.998,45.000,30870.04431,1.87618,397.652,32.248,45.069,45.000,0.00,0.09,-272.71,-272.78,2,494,-0,19.9,6.9,-17.1,19.8,7.0,-16.9,5.73,1.87,-14.2,24.8
2015-04-28 00:06:00,3.0,1.87593,0.00034,397.614,0.032,0.0065,0.0022,139.998,45.000,30847.73713,1.87607,397.643,32.248,45.068,45.000,0.00,0.09,-272.73,-272.78,2,494,-0,19.9,6.8,-17.3,19.8,6.9,-17.1,5.73,1.93,-14.2,24.8
2015-04-28 00:07:00,3.0,1.87578,0.00040,397.589,0.027,0.0051,0.0015,139.995,45.000,30829.32859,1.87589,397.615,32.243,45.068,45.000,0.00,0.09,-272.72,-272.77,2,494,-0,20.0,6.8,-17.3,19.8,6.9,-17.1,5.73,2.01,-14.3,24.8
2015-04-28 00:08:00,3.0,1.87584,0.00042,397.597,0.022,0.0040,0.0017,139.998,45.000,30814.82297,1.87588,397.615,32.247,45.069,45.000,0.00,0.09,-272.72,-272.78,1,494,-0,20.0,6.8,-17.2,19.9,7.0,-17.0,5.73,1.94,-14.3,24.9
2015-04-28 00:09:00,3.0,1.87617,0.00030,397.623,0.037,0.0030,0.0020,140.000,45.000,30800.32818,1.87626,397.638,32.249,45.068,45.000,0.00,0.09,-272.72,-272.78,2,494,-0,20.0,6.7,-17.4,19.9,6.9,-17.2,5.73,1.86,-14.4,24.9
2015-04-28 00:10:00,3.0,1.87600,0.00039,397.640,0.020,0.0033,0.0020,139.999,45.000,30788.62854,1.87605,397.656,32.221,45.069,45.000,0.00,0.09,-272.72,-272.77,2,494,-0,20.0,6.6,-17.5,19.9,6.8,-17.3,5.73,1.94,-14.4,24.9
2015-04-28 00:11:00,3.0,1.87581,0.00031,397.626,0.038,0.0026,0.0018,139.998,45.000,30781.25230,1.87589,397.639,32.206,45.069,45.000,0.00,0.09,-272.72,-272.78,2,495,-0,20.0,6.6,-17.6,19.9,6.7,-17.5,5.73,2.01,-14.5,24.9
2015-04-28 00:12:00,3.0,1.87576,0.00043,397.616,0.034,0.0014,0.0020,139.996,45.000,30774.12744,1.87578,397.625,32.188,45.069,45.000,0.00,0.09,-272.72,-272.78,1,495,-0,20.0,6.5,-17.7,19.9,6.7,-17.6,5.73,1.94,-14.5,24.9
2015-04-28 00:13:00,3.0,1.87587,0.00046,397.611,0.026,0.0015,0.0014,140.000,45.000,30768.60473,1.87588,397.618,32.215,45.069,45.000,0.00,0.09,-272.72,-272.77,2,495,-0,20.1,6.5,-17.7,19.9,6.7,-17.5,5.73,1.86,-14.5,24.9
2015-04-28 00:14:00,3.0,1.87584,0.00037,397.612,0.034,0.0012,0.0012,140.002,45.000,30765.05098,1.87588,397.617,32.232,45.069,45.000,0.00,0.09,-272.72,-272.77,2,495,-0,20.1,6.5,-17.7,19.9,6.7,-17.5,5.73,1.93,-14.6,24.9
2015-04-28 00:15:00,3.0,1.87588,0.00029,397.643,0.024,0.0010,0.0011,139.998,45.000,30759.39951,1.87591,397.647,32.244,45.068,45.000,0.00,0.09,-272.72,-272.78,2,496,-0,20.1,6.5,-17.7,19.9,6.7,-17.5,5.73,2.01,-14.6,24.9
2015-04-28 00:16:00,3.0,1.87579,0.00034,397.630,0.032,0.0009,0.0017,140.001,45.000,30756.56224,1.87582,397.636,32.250,45.068,45.000,0.00,0.09,-272.72,-272.78,2,496,-0,20.1,6.5,-17.7,19.9,6.7,-17.5,5.73,1.94,-14.6,24.9
2015-04-28 00:17:00,3.0,1.87578,0.00044,397.648,0.033,0.0014,0.0015,139.999,45.000,30752.40299,1.87582,397.656,32.250,45.068,45.000,0.00,0.09,-272.72,-272.77,2,496,-0,20.1,6.6,-17.6,19.9,6.7,-17.4,5.73,1.86,-14.6,24.9
2015-04-28 00:18:00,3.0,1.87593,0.00031,397.631,0.033,0.0010,0.0018,139.999,45.000,30749.82139,1.87590,397.634,32.251,45.068,45.000,0.00,0.09,-272.72,-272.77,1,496,-0,20.1,6.6,-17.6,19.9,6.7,-17.4,5.73,1.95,-14.7,24.9
2015-04-28 00:19:00,3.0,1.87578,0.00043,397.622,0.035,0.0004,0.0014,140.000,45.000,30750.38441,1.87581,397.624,32.250,45.068,45.000,0.00,0.09,-272.73,-272.79,1,496,-0,20.1,6.5,-17.6,19.9,6.7,-17.5,5.73,2.02,-14.7,25.0
2015-04-28 00:20:00,0.0,1.92375,0.01048,403.788,2.041,0.1742,0.0563,140.142,45.000,33492.63559,1.92484,404.464,32.252,45.068,45.000,0.00,0.09,-272.73,-272.78,3,948,-0,20.1,6.6,-17.5,20.0,6.7,-17.4,5.73,1.91,-14.7,25.0
2015-04-28 00:21:00,0.0,1.92611,0.00037,404.535,0.031,0.2053,0.0020,140.004,45.000,33710.64853,1.93003,405.539,32.250,45.068,45.000,0.00,0.09,-272.72,-272.78,3,949,-0,20.1,6.6,-17.4,20.0,6.8,-17.3,5.73,1.90,-14.7,25.0
2015-04-28 00:22:00,0.0,1.92617,0.00045,404.525,0.037,0.2097,0.0014,140.005,45.000,33770.44217,1.93020,405.549,32.243,45.068,45.000,0.00,0.09,-272.73,-272.78,2,952,-1,20.1,6.8,-17.2,20.0,6.9,-17.1,5.73,2.05,-14.7,25.0
2015-04-28 00:23:00,0.0,1.92588,0.00038,404.514,0.032,0.2136,0.0024,140.004,45.000,33811.55678,1.92991,405.557,32.227,45.068,45.000,0.00,0.09,-272.73,-272.79,3,951,-1,20.1,6.8,-17.1,20.0,7.0,-16.9,5.73,1.92,-14.7,25.0
2015-04-28 00:24:00,0.0,1.92586,0.00029,404.516,0.031,0.2173,0.0014,140.006,45.000,33846.28691,1.92999,405.579,32.223,45.068,45.000,0.00,0.09,-272.71,-272.77,2,952,-0,20.1,7.0,-16.8,20.0,7.1,-16.8,5.73,1.90,-14.7,25.0
2015-04-28 00:25:00,0.0,1.92566,0.00039,404.506,0.030,0.2213,0.0022,140.000,45.000,33875.61400,1.92989,405.587,32.214,45.069,45.000,0.00,0.09,-272.72,-272.77,3,952,-0,20.2,7.1,-16.6,20.0,7.2,-16.6,5.73,2.04,-14.7,25.0
2015-04-28 00:26:00,0.0,1.92572,0.00050,404.503,0.034,0.2269,0.0032,140.005,45.000,33897.18768,1.93002,405.613,32.198,45.069,45.000,0.00,0.09,-272.73,-272.78,2,951,-1,20.2,7.2,-16.4,20.0,7.3,-16.4,5.73,1.93,-14.7,25.0
2015-04-28 00:27:00,0.0,1.92545,0.00039,404.457,0.034,0.2369,0.0032,140.002,45.000,33914.81247,1.93003,405.614,32.190,45.069,45.000,0.00,0.09,-272.72,-272.77,3,952,-1,20.1,7.5,-15.9,20.0,7.6,-16.0,5.73,1.89,-14.7,25.0
2015-04-28 00:28:00,0.0,1.92478,0.00038,404.425,0.028,0.2414,0.0012,139.998,45.000,33931.89995,1.92938,405.607,32.200,45.069,45.000,0.00,0.09,-272.72,-272.78,3,952,-0,20.2,7.7,-15.6,20.0,7.8,-15.6,5.73,2.04,-14.7,25.0
2015-04-28 00:29:00,0.0,1.92506,0.00041,404.424,0.040,0.2427,0.0016,140.002,45.000,33947.45173,1.92968,405.609,32.191,45.069,45.000,0.00,0.09,-272.72,-272.78,2,951,-1,20.2,7.7,-15.6,20.0,7.8,-15.5,5.73,1.92,-14.8,25.0
2015-04-28 00:30:00,0.0,1.92528,0.00028,404.422,0.043,0.2408,0.0013,139.999,45.000,33956.18299,1.92985,405.602,32.202,45.069,45.000,0.00,0.09,-272.72,-272.78,2,952,-0,20.2,7.7,-15.7,20.0,7.8,-15.5,5.73,1.90,-14.8,25.0
2015-04-28 00:31:00,0.0,1.92529,0.00039,404.441,0.044,0.2393,0.0020,140.005,45.000,33967.20581,1.92984,405.612,32.237,45.069,45.000,0.00,0.09,-272.72,-272.78,3,952,-1,20.1,7.6,-15.8,20.0,7.8,-15.6,5.73,2.04,-14.8,25.0
2015-04-28 00:32:00,0.0,1.92525,0.00028,404.435,0.031,0.2369,0.0015,140.002,45.000,33976.93414,1.92978,405.595,32.241,45.068,45.000,0.00,0.09,-272.73,-272.77,2,952,-1,20.1,7.6,-15.8,20.0,7.7,-15.7,5.73,1.91,-14.8,25.0
2015-04-28 00:33:00,0.0,1.92506,0.00028,404.435,0.029,0.2387,0.0020,140.002,45.000,33982.85907,1.92960,405.603,32.249,45.068,45.000,0.00,0.09,-272.72,-272.78,2,953,-1,20.2,7.6,-15.8,20.0,7.7,-15.7,5.73,1.92,-14.7,25.0
2015-04-28 00:34:00,0.0,1.92502,0.00035,404.452,0.048,0.2320,0.0028,139.998,45.000,33984.44451,1.92946,405.587,32.250,45.068,45.000,0.00,0.09,-272.73,-272.77,3,951,-1,20.2,7.4,-16.1,20.0,7.6,-15.9,5.73,2.04,-14.8,24.9
2015-04-28 00:35:00,0.0,1.92540,0.00041,404.448,0.038,0.2279,0.0023,139.996,45.000,33988.32631,1.92974,405.565,32.253,45.068,45.000,0.00,0.09,-272.71,-272.78,3,950,-0,20.2,7.2,-16.4,20.0,7.5,-16.1,5.73,1.88,-14.8,25.0
2015-04-28 00:36:00,0.0,1.92514,0.00032,404.455,0.026,0.2261,0.0016,140.005,45.000,33993.15926,1.92946,405.561,32.259,45.068,45.000,0.00,0.09,-272.73,-272.78,2,951,-1,20.2,7.2,-16.4,20.0,7.4,-16.3,5.73,1.96,-14.8,25.0
2015-04-28 00:37:00,0.0,1.92524,0.00045,404.446,0.038,0.2251,0.0027,139.998,45.000,33996.27486,1.92951,405.548,32.274,45.068,45.000,0.00,0.09,-272.72,-272.78,3,951,-1,20.2,7.2,-16.4,20.0,7.4,-16.3,5.73,2.02,-14.8,25.0
2015-04-28 00:38:00,0.0,1.92513,0.00041,404.494,0.037,0.2192,0.0027,140.000,45.000,34002.12851,1.92934,405.566,32.272,45.068,45.000,0.00,0.09,-272.73,-272.77,3,950,-1,20.2,7.0,-16.8,20.0,7.2,-16.5,5.73,1.85,-14.8,25.0
2015-04-28 00:39:00,0.0,1.92534,0.00044,404.496,0.020,0.2166,0.0016,140.000,45.000,34004.78641,1.92946,405.555,32.274,45.068,45.000,0.00,0.09,-272.72,-272.78,2,951,-1,20.2,6.9,-17.0,20.0,7.1,-16.7,5.73,2.00,-14.8,25.0
2015-04-28 00:40:00,0.0,1.92540,0.00046,404.488,0.033,0.2177,0.0019,139.999,45.000,34012.34705,1.92954,405.552,32.256,45.068,45.000,0.00,0.09,-272.73,-272.78,2,952,-1,20.2,6.9,-16.9,20.0,7.0,-16.8,5.73,1.99,-14.8,25.1
2015-04-28 00:41:00,0.0,1.92542,0.00025,404.494,0.030,0.2202,0.0015,140.007,45.000,34018.81359,1.92960,405.570,32.252,45.068,45.000,0.00,0.09,-272.72,-272.77,2,953,-1,20.2,7.0,-16.8,20.0,7.1,-16.7,5.73,1.87,-14.8,25.0
2015-04-28 00:42:00,0.0,1.92546,0.00033,404.521,0.029,0.2213,0.0018,140.003,45.000,34018.00707,1.92967,405.604,32.258,45.068,45.000,0.00,0.09,-272.72,-272.77,3,953,-1,20.2,7.0,-16.7,20.0,7.2,-16.6,5.73,1.97,-14.8,25.0
2015-04-28 00:43:00,0.0,1.92548,0.00033,404.505,0.035,0.2247,0.0015,139.996,45.000,34018.03345,1.92977,405.604,32.287,45.068,45.000,0.00,0.09,-272.73,-272.79,2,952,-1,20.2,7.1,-16.5,20.0,7.2,-16.5,5.73,2.03,-14.8,25.0
2015-04-28 00:44:00,0.0,1.92524,0.00035,404.466,0.031,0.2267,0.0014,139.998,45.000,34021.88155,1.92957,405.574,32.279,45.068,45.000,0.00,0.09,-272.71,-272.78,1,954,-1,20.2,7.2,-16.4,20.0,7.3,-16.3,5.73,1.86,-14.8,25.1
2015-04-28 00:45:00,0.0,1.92504,0.00029,404.480,0.030,0.2273,0.0022,139.996,45.000,34022.32062,1.92936,405.592,32.296,45.068,45.000,0.00,0.09,-272.72,-272.77,3,953,-1,20.2,7.2,-16.4,20.0,7.4,-16.2,5.73,1.97,-14.8,25.1
2015-04-28 00:46:00,0.0,1.92520,0.00031,404.490,0.036,0.2250,0.0013,139.996,45.000,34020.23047,1.92949,405.590,32.283,45.068,45.000,0.00,0.09,-272.72,-272.79,2,951,-1,20.2,7.1,-16.5,20.0,7.3,-16.3,5.73,2.02,-14.8,25.1
2015-04-28 00:47:00,0.0,1.92559,0.00032,404.484,0.041,0.2265,0.0012,139.996,45.000,34021.93319,1.92988,405.592,32.285,45.068,45.000,0.00,0.09,-272.72,-272.78,1,953,-1,20.2,7.2,-16.4,20.0,7.3,-16.3,5.73,1.86,-14.8,25.1
2015-04-28 00:48:00,0.0,1.92576,0.00030,404.515,0.031,0.2246,0.0026,140.000,45.000,34024.54859,1.93007,405.614,32.261,45.068,45.000,0.00,0.09,-272.71,-272.77,2,953,-1,20.2,7.1,-16.6,20.0,7.3,-16.3,5.73,1.98,-14.8,25.1
2015-04-28 00:49:00,0.0,1.92592,0.00033,404.515,0.015,0.2177,0.0031,139.996,45.000,34030.53313,1.93003,405.581,32.253,45.069,45.000,0.00,0.09,-272.72,-272.78,2,954,-1,20.2,6.9,-16.9,20.0,7.2,-16.6,5.73,2.02,-14.8,25.1
2015-04-28 00:50:00,0.0,1.92600,0.00034,404.567,0.039,0.2101,0.0021,139.994,45.000,34032.10836,1.93000,405.594,32.251,45.069,45.000,0.00,0.09,-272.73,-272.78,2,954,-1,20.2,6.6,-17.3,20.0,6.9,-17.0,5.73,1.87,-14.8,25.1
2015-04-28 00:51:00,0.0,1.92621,0.00048,404.539,0.014,0.2070,0.0018,140.000,45.000,34035.21956,1.93014,405.552,32.243,45.069,45.000,0.00,0.09,-272.72,-272.77,1,955,-1,20.2,6.5,-17.5,20.0,6.8,-17.2,5.73,1.96,-14.8,25.1
2015-04-28 00:52:00,0.0,1.92626,0.00047,404.609,0.041,0.2042,0.0018,139.999,45.000,34036.13951,1.93019,405.606,32.205,45.068,45.000,0.00,0.09,-272.72,-272.78,2,955,-1,20.2,6.5,-17.7,20.0,6.7,-17.4,5.73,2.03,-14.8,25.0
2015-04-28 00:53:00,0.0,1.92626,0.00039,404.596,0.026,0.2038,0.0018,139.993,45.000,34035.84407,1.93012,405.594,32.197,45.068,45.000,0.00,0.09,-272.73,-272.78,2,955,-1,20.2,6.4,-17.8,20.0,6.6,-17.5,5.73,1.90,-14.8,25.0
2015-04-28 00:54:00,0.0,1.92630,0.00031,404.588,0.033,0.2025,0.0013,140.002,45.000,34038.88308,1.93018,405.578,32.207,45.069,45.000,0.00,0.09,-272.73,-272.77,2,955,-1,20.2,6.4,-17.8,20.0,6.6,-17.6,5.73,1.91,-14.7,25.0
2015-04-28 00:55:00,0.0,1.92622,0.00041,404.580,0.032,0.2009,0.0014,139.999,45.000,34037.27477,1.93006,405.562,32.208,45.069,45.000,0.00,0.09,-272.72,-272.77,1,954,-1,20.2,6.4,-17.9,20.0,6.5,-17.7,5.73,2.05,-14.7,25.0
2015-04-28 00:56:00,0.0,1.92644,0.00021,404.583,0.023,0.2014,0.0019,140.003,45.000,34035.91027,1.93025,405.568,32.217,45.069,45.000,0.00,0.09,-272.72,-272.78,2,955,-1,20.2,6.3,-17.9,20.0,6.5,-17.7,5.73,1.90,-14.7,25.0
2015-04-28 00:57:00,0.0,1.92615,0.00039,404.595,0.038,0.2006,0.0010,139.998,45.000,34033.34182,1.92999,405.576,32.247,45.069,45.000,0.00,0.09,-272.72,-272.77,2,953,-1,20.2,6.3,-17.9,20.0,6.5,-17.7,5.73,1.91,-14.7,25.0
2015-04-28 00:58:00,0.0,1.92608,0.00030,404.557,0.033,0.2004,0.0019,140.002,45.000,34035.39487,1.92988,405.536,32.250,45.068,45.000,0.00,0.09,-272.72,-272.78,1,953,-1,20.2,6.3,-17.9,20.1,6.5,-17.7,5.73,2.06,-14.7,25.1
2015-04-28 00:59:00,0.0,1.92626,0.00028,404.553,0.025,0.2034,0.0018,140.000,45.000,34034.26467,1.93012,405.547,32.250,45.068,45.000,0.00,0.09,-272.73,-272.78,2,954,-1,20.2,6.4,-17.8,20.0,6.5,-17.7,5.73,1.89,-14.7,25.1
2015-04-28 01:00:00,0.0,1.92610,0.00039,404.561,0.026,0.2049,0.0017,140.001,45.000,34035.21027,1.93004,405.562,32.256,45.068,45.000,0.00,0.09,-272.72,-272.79,3,952,-1,20.2,6.5,-17.7,20.1,6.6,-17.5,5.73,1.92,-14.7,25.1
2015-04-28 01:01:00,0.0,1.92629,0.00049,404.556,0.026,0.2047,0.0019,140.000,45.000,34034.82457,1.93018,405.557,32.264,45.068,45.000,0.00,0.09,-272.72,-272.78,2,953,-1,20.2,6.4,-17.7,20.1,6.6,-17.5,5.73,2.05,-14.7,25.1
2015-04-28 01:02:00,0.0,1.92623,0.00038,404.585,0.031,0.2058,0.0022,139.999,45.000,34035.16288,1.93016,405.591,32.296,45.068,45.000,0.00,0.09,-272.72,-272.77,2,954,-1,20.2,6.5,-17.6,20.1,6.7,-17.4,5.73,1.90,-14.7,25.1
2015-04-28 01:03:00,0.0,1.92600,0.00036,404.590,0.043,0.2052,0.0018,140.004,45.000,34041.26539,1.92993,405.593,32.257,45.068,45.000,0.00,0.09,-272.73,-272.78,2,953,-1,20.2,6.5,-17.7,20.1,6.6,-17.4,5.73,1.91,-14.7,25.1
2015-04-28 01:04:00,0.0,1.92604,0.00032,404.609,0.030,0.1999,0.0018,140.004,45.000,34043.32590,1.92982,405.587,32.251,45.068,45.000,0.00,0.09,-272.73,-272.78,3,955,-1,20.2,6.3,-17.9,20.1,6.5,-17.6,5.73,2.03,-14.7,25.1
2015-04-28 01:05:00,0.0,1.92625,0.00041,404.606,0.028,0.1990,0.0015,139.997,45.000,34041.62289,1.93004,405.578,32.250,45.068,45.000,0.00,0.09,-272.71,-272.78,1,954,-1,20.2,6.3,-18.0,20.1,6.5,-17.8,5.73,1.95,-14.7,25.1
2015-04-28 01:06:00,0.0,1.92613,0.00036,404.592,0.032,0.1995,0.0021,139.996,45.000,34044.22107,1.92993,405.567,32.250,45.068,45.000,0.00,0.09,-272.73,-272.78,1,956,-1,20.2,6.3,-18.0,20.1,6.4,-17.8,5.73,1.87,-14.7,25.1
2015-04-28 01:07:00,0.0,1.92622,0.00038,404.569,0.034,0.2017,0.0026,140.000,45.000,34041.41537,1.93007,405.556,32.250,45.068,45.000,0.00,0.09,-272.72,-272.77,1,955,-1,20.2,6.4,-17.8,20.1,6.5,-17.7,5.73,2.03,-14.7,25.1
2015-04-28 01:08:00,0.0,1.92604,0.00030,404.540,0.027,0.2060,0.0020,139.998,45.000,34044.57628,1.92995,405.547,32.257,45.068,45.000,0.00,0.09,-272.72,-272.77,2,955,-1,20.2,6.5,-17.6,20.1,6.6,-17.5,5.73,1.98,-14.7,25.0
2015-04-28 01:09:00,0.0,1.92598,0.00022,404.537,0.024,0.2117,0.0029,139.998,45.000,34041.55454,1.93002,405.571,32.258,45.068,45.000,0.00,0.09,-272.73,-272.77,2,954,-1,20.2,6.6,-17.3,20.1,6.7,-17.3,5.73,1.86,-14.7,25.1
2015-04-28 01:10:00,0.0,1.92588,0.00035,404.514,0.033,0.2180,0.0023,139.997,45.000,34040.11987,1.93004,405.580,32.273,45.068,45.000,0.00,0.09,-272.72,-272.78,1,955,-1,20.2,6.9,-16.9,20.1,7.0,-16.9,5.73,2.01,-14.7,25.1
2015-04-28 01:11:00,0.0,1.92574,0.00038,404.561,0.029,0.2169,0.0019,139.999,45.000,34039.03475,1.92987,405.622,32.294,45.068,45.000,0.00,0.09,-272.72,-272.78,2,953,-1,20.2,6.8,-17.0,20.0,7.0,-16.8,5.73,2.00,-14.7,25.1
2015-04-28 01:12:00,0.0,1.92545,0.00030,404.535,0.029,0.2170,0.0018,139.997,45.000,34036.70520,1.92959,405.597,32.306,45.068,45.000,0.00,0.09,-272.71,-272.77,2,954,-1,20.2,6.8,-17.0,20.1,7.0,-16.8,5.73,1.86,-14.7,25.1
2015-04-28 01:13:00,0.0,1.92564,0.00037,404.552,0.023,0.2129,0.0024,139.997,45.000,34034.99992,1.92973,405.593,32.309,45.068,45.000,0.00,0.09,-272.72,-272.79,2,954,-1,20.2,6.7,-17.2,20.1,6.9,-16.9,5.73,2.00,-14.7,25.1
2015-04-28 01:14:00,0.0,1.92550,0.00038,404.550,0.030,0.2136,0.0022,139.997,45.000,34034.19452,1.92955,405.593,32.311,45.068,45.000,0.00,0.09,-272.72,-272.79,2,953,-1,20.2,6.7,-17.2,20.1,6.9,-17.0,5.73,2.00,-14.7,25.1
2015-04-28 01:15:00,0.0,1.92544,0.00031,404.546,0.039,0.2117,0.0016,139.999,45.000,34036.25513,1.92947,405.583,32.309,45.068,45.000,0.00,0.09,-272.72,-272.77,2,954,-1,20.2,6.7,-17.3,20.1,6.9,-17.1,5.73,1.86,-14.7,25.1
2015-04-28 01:16:00,0.0,1.92538,0.00038,404.561,0.029,0.2103,0.0022,139.998,45.000,34035.04036,1.92940,405.588,32.313,45.068,45.000,0.00,0.09,-272.73,-272.78,2,952,-1,20.3,6.6,-17.4,20.1,6.8,-17.2,5.73,2.00,-14.7,25.1
2015-04-28 01:17:00,0.0,1.92550,0.00037,404.560,0.048,0.2095,0.0020,140.002,45.000,34033.03260,1.92947,405.586,32.313,45.068,45.000,0.00,0.09,-272.73,-272.79,2,952,-1,20.2,6.6,-17.4,20.1,6.8,-17.2,5.73,1.99,-14.7,25.1
2015-04-28 01:18:00,0.0,1.92571,0.00044,404.549,0.026,0.2091,0.0023,139.998,45.000,34030.88390,1.92969,405.572,32.314,45.068,45.000,0.00,0.09,-272.72,-272.77,2,953,-1,20.3,6.6,-17.4,20.1,6.8,-17.2,5.73,1.86,-14.7,25.1
2015-04-28 01:19:00,0.0,1.92565,0.00054,404.537,0.026,0.2121,0.0020,139.998,45.000,34025.14048,1.92966,405.571,32.316,45.068,45.000,0.00,0.09,-272.72,-272.77,3,951,-1,20.3,6.7,-17.3,20.1,6.8,-17.2,5.73,2.02,-14.7,25.1
2015-04-28 01:20:00,0.0,1.92566,0.00036,404.550,0.032,0.2146,0.0015,139.994,45.000,34024.87855,1.92976,405.601,32.318,45.069,45.000,0.00,0.09,-272.73,-272.78,2,952,-1,20.3,6.7,-17.1,20.1,6.9,-17.0,5.73,1.96,-14.7,25.2
2015-04-28 01:21:00,0.0,1.92587,0.00046,404.554,0.022,0.2091,0.0020,140.000,45.000,34027.89761,1.92984,405.576,32.319,45.069,45.000,0.00,0.09,-272.72,-272.77,1,953,-1,20.3,6.6,-17.4,20.1,6.8,-17.2,5.73,1.86,-14.7,25.1
2015-04-28 01:22:00,0.0,1.92572,0.00042,404.566,0.037,0.2093,0.0024,140.002,45.000,34034.73514,1.92974,405.590,32.319,45.069,45.000,0.00,0.09,-272.71,-272.77,3,953,-1,20.3,6.6,-17.4,20.1,6.8,-17.2,5.73,2.03,-14.7,25.1
2015-04-28 01:23:00,0.0,1.92528,0.00035,404.521,0.038,0.2081,0.0025,139.997,45.000,34036.95603,1.92921,405.539,32.324,45.069,45.000,0.00,0.09,-272.72,-272.79,2,954,-1,20.3,6.5,-17.5,20.1,6.7,-17.3,5.73,1.96,-14.7,25.1
2015-04-28 01:24:00,0.0,1.92548,0.00037,404.523,0.024,0.2030,0.0016,139.994,45.000,34037.33832,1.92938,405.516,32.316,45.068,45.000,0.00,0.09,-272.72,-272.78,2,954,-1,20.3,6.4,-17.8,20.1,6.6,-17.5,5.73,1.86,-14.7,25.0
2015-04-28 01:25:00,0.0,1.92544,0.00043,404.529,0.033,0.2000,0.0015,140.000,45.000,34043.57637,1.92926,405.507,32.313,45.068,45.000,0.00,0.09,-272.70,-272.78,1,955,-1,20.3,6.2,-18.0,20.1,6.5,-17.7,5.73,2.00,-14.6,25.0
2015-04-28 01:26:00,0.0,1.92543,0.00024,404.512,0.024,0.1990,0.0022,140.002,45.000,34044.38955,1.92921,405.485,32.312,45.068,45.000,0.00,0.09,-272.72,-272.78,3,954,-1,20.3,6.2,-18.1,20.1,6.4,-17.8,5.73,2.01,-14.7,25.0
2015-04-28 01:27:00,0.0,1.92527,0.00030,404.527,0.033,0.1985,0.0014,140.001,45.000,34045.95375,1.92905,405.495,32.312,45.068,45.000,0.00,0.09,-272.73,-272.78,2,956,-1,20.4,6.2,-18.1,20.1,6.4,-17.9,5.73,1.87,-14.7,25.1
2015-04-28 01:28:00,0.0,1.92561,0.00036,404.517,0.034,0.2004,0.0015,140.005,45.000,34047.95466,1.92942,405.496,32.307,45.068,45.000,0.00,0.09,-272.72,-272.77,2,955,-1,20.4,6.3,-17.9,20.1,6.4,-17.8,5.73,1.94,-14.6,25.1
2015-04-28 01:29:00,0.0,1.92562,0.00032,404.518,0.022,0.1996,0.0022,139.996,45.000,34045.32462,1.92942,405.494,32.283,45.068,45.000,0.00,0.09,-272.73,-272.78,1,956,-1,20.4,6.2,-18.0,20.1,6.4,-17.8,5.73,2.03,-14.6,25.1
2015-04-28 01:30:00,0.0,1.92548,0.00039,404.542,0.033,0.2006,0.0017,140.000,45.000,34043.85612,1.92929,405.522,32.273,45.068,45.000,0.00,0.09,-272.72,-272.78,2,955,-1,20.4,6.2,-18.0,20.1,6.4,-17.8,5.73,1.90,-14.6,25.1
2015-04-28 01:31:00,0.0,1.92581,0.00037,404.545,0.019,0.1993,0.0013,140.004,45.000,34043.77040,1.92959,405.518,32.295,45.068,45.000,0.00,0.09,-272.72,-272.78,1,957,-1,20.3,6.2,-18.0,20.1,6.4,-17.8,5.73,1.90,-14.6,25.1
2015-04-28 01:32:00,0.0,1.92538,0.00041,404.527,0.027,0.1995,0.0018,140.000,45.000,34050.29818,1.92922,405.503,32.309,45.069,45.000,0.00,0.09,-272.72,-272.77,2,955,-1,20.3,6.2,-18.0,20.1,6.4,-17.8,5.73,2.04,-14.6,25.1
2015-04-28 01:33:00,0.0,1.92544,0.00035,404.520,0.026,0.1986,0.0016,139.999,45.000,34052.76428,1.92921,405.490,32.311,45.068,45.000,0.00,0.09,-272.73,-272.78,1,958,-1,20.4,6.2,-18.1,20.1,6.4,-17.9,5.73,1.97,-14.6,25.1
2015-04-28 01:34:00,0.0,1.92551,0.00036,404.523,0.032,0.1992,0.0014,140.004,45.000,34051.59629,1.92932,405.497,32.316,45.068,45.000,0.00,0.09,-272.72,-272.78,1,956,-1,20.4,6.2,-18.0,20.1,6.4,-17.8,5.73,1.87,-14.6,25.1
2015-04-28 01:35:00,0.0,1.92573,0.00028,404.565,0.026,0.1988,0.0020,139.997,45.000,34048.64626,1.92948,405.538,32.315,45.068,45.000,0.00,0.09,-272.71,-272.77,2,957,-1,20.4,6.2,-18.0,20.1,6.4,-17.9,5.73,1.97,-14.6,25.1
2015-04-28 01:36:00,0.0,1.92519,0.00029,404.527,0.036,0.2028,0.0022,140.000,45.001,34053.04030,1.92906,405.518,32.313,45.068,45.000,0.00,0.09,-272.72,-272.77,1,955,-1,20.3,6.3,-17.8,20.1,6.5,-17.7,5.73,2.03,-14.6,25.1
2015-04-28 01:37:00,0.0,1.92568,0.00050,404.524,0.040,0.2031,0.0018,140.003,45.000,34050.42006,1.92952,405.516,32.313,45.068,45.000,0.00,0.09,-272.72,-272.78,1,956,-1,20.4,6.4,-17.7,20.1,6.5,-17.6,5.73,1.88,-14.6,25.2
2015-04-28 01:38:00,0.0,1.92566,0.00029,404.534,0.042,0.2017,0.0021,140.002,45.001,34050.48287,1.92953,405.522,32.315,45.068,45.000,0.00,0.09,-272.72,-272.78,2,955,-1,20.4,6.3,-17.9,20.1,6.5,-17.6,5.73,1.94,-14.6,25.2
2015-04-28 01:39:00,0.0,1.92545,0.00039,404.536,0.030,0.2036,0.0025,139.998,45.001,34048.22097,1.92932,405.531,32.326,45.068,45.000,0.00,0.09,-272.72,-272.77,2,956,-1,20.4,6.3,-17.8,20.1,6.5,-17.6,5.73,2.03,-14.6,25.1
2015-04-28 01:40:00,0.0,1.92523,0.00033,404.519,0.026,0.2043,0.0019,139.998,45.001,34050.28901,1.92914,405.518,32.348,45.068,45.000,0.00,0.09,-272.72,-272.77,2,954,-1,20.4,6.3,-17.8,20.1,6.5,-17.6,5.73,1.91,-14.6,25.1
2015-04-28 01:41:00,0.0,1.92530,0.00043,404.531,0.033,0.2060,0.0018,139.999,45.001,34053.34004,1.92921,405.538,32.369,45.068,45.000,0.00,0.09,-272.72,-272.77,1,957,-1,20.4,6.4,-17.6,20.1,6.6,-17.5,5.73,1.90,-14.6,25.1
2015-04-28 01:42:00,0.0,1.92503,0.00039,404.509,0.029,0.2082,0.0018,139.999,45.001,34055.58452,1.92901,405.526,32.375,45.068,45.000,0.00,0.09,-272.72,-272.79,1,956,-1,20.4,6.5,-17.5,20.1,6.7,-17.4,5.73,2.04,-14.6,25.1
2015-04-28 01:43:00,0.0,1.92522,0.00024,404.515,0.031,0.2097,0.0018,140.001,45.000,34057.69266,1.92920,405.542,32.380,45.068,45.000,0.00,0.09,-272.72,-272.79,2,958,-1,20.4,6.5,-17.4,20.1,6.7,-17.3,5.73,1.95,-14.6,25.1
2015-04-28 01:44:00,0.0,1.92529,0.00045,404.503,0.032,0.2074,0.0020,139.999,45.000,34059.18867,1.92925,405.516,32.384,45.068,45.000,0.00,0.09,-272.73,-272.77,1,956,-1,20.4,6.5,-17.5,20.1,6.7,-17.3,5.73,1.88,-14.6,25.1
2015-04-28 01:45:00,0.0,1.92545,0.00039,404.532,0.038,0.2080,0.0020,139.996,45.000,34056.53263,1.92940,405.548,32.383,45.068,45.000,0.00,0.09,-272.71,-272.77,1,957,-1,20.4,6.4,-17.5,20.1,6.6,-17.4,5.73,2.00,-14.6,25.1
2015-04-28 01:46:00,0.0,1.92509,0.00036,404.509,0.044,0.2087,0.0017,140.002,45.000,34061.09227,1.92908,405.531,32.381,45.068,45.000,0.00,0.09,-272.72,-272.79,1,956,-1,20.4,6.5,-17.5,20.1,6.7,-17.3,5.73,2.01,-14.5,25.2